Greenwood, SC

12:52 AM EDT on July 28, 2017 (GMT -0400)
Greenwood County

Weather History for KGRD - March, 2012

Change the Weather History Date:

Sunday, March 11, 2012

  Actual Average (KAND) Record (KAND)
Temperature  
Mean Temperature 49 °F -  
Max Temperature 64 °F 64 °F 83 °F (1990)
Min Temperature 34 °F 39 °F 19 °F (1998)
Degree Days  
Heating Degree Days 16    
Moisture  
Dew Point 38 °F    
Average Humidity 65    
Maximum Humidity 92    
Minimum Humidity 39    
Precipitation  
Precipitation 0.00 in - - ()
Sea Level Pressure  
Sea Level Pressure 30.48 in    
Wind  
Wind Speed 3 mph (NE)    
Max Wind Speed 8 mph    
Max Gust Speed -    
Visibility 10 miles    
Events      
Averages and records for this station are not official NWS values.
T = Trace of Precipitation, MM = Missing Value Source: NWS Daily Summary

Daily Weather History Graph

Daily Weather History Graph

Search for Another Location

Airport or City:

Trip Planner

Search our weather history database for the weather conditions in past years. The results will help you decide how hot, cold, wet, or windy it might be!

Date:

Astronomy

Mar. 11, 2012 Rise Set
Actual Time 7:43 AM EDT 7:33 PM EDT
Civil Twilight 7:18 AM EDT 7:58 PM EDT
Nautical Twilight 6:49 AM EDT 8:27 PM EDT
Astronomical Twilight 6:20 AM EDT 8:56 PM EDT
Moon 11:41 PM EDT (3/11) 9:31 AM EDT (3/11)
Length of Visible Light 12h 39m
Length of Day
11h 49m
Waning Gibbous, 85% of the Moon is Illuminated
Mar 11
Waning Gibbous
Mar 14
Last Quarter
Mar 22
New
Mar 30
First Quarter
Apr 6
Full

Hourly Weather History & Observations

Time (EDT) Temp. Windchill Dew Point Humidity Pressure Visibility Wind Dir Wind Speed Gust Speed Precip Events Conditions
12:56 AM 43.0 °F 41.3 °F 32.0 °F 65% 30.49 in 10.0 mi NE 3.5 mph - N/A   Clear
1:56 AM 39.0 °F - 33.1 °F 79% 30.49 in 10.0 mi Calm Calm - N/A   Clear
3:56 AM 37.0 °F - 32.0 °F 82% 30.48 in 10.0 mi Calm Calm - N/A   Clear
4:56 AM 37.0 °F - 32.0 °F 82% 30.48 in 10.0 mi Calm Calm - N/A   Clear
5:56 AM 35.1 °F 32.2 °F 32.0 °F 89% 30.50 in 10.0 mi North 3.5 mph - N/A   Clear
6:56 AM 36.0 °F 33.3 °F 33.1 °F 89% 30.51 in 10.0 mi NNE 3.5 mph - N/A   Clear
7:56 AM 34.0 °F - 32.0 °F 92% 30.53 in 9.0 mi Calm Calm - N/A   Clear
8:39 AM 39.2 °F 35.9 °F 35.6 °F 87% 30.54 in 10.0 mi North 4.6 mph - N/A   Partly Cloudy
8:56 AM 41.0 °F 38.0 °F 36.0 °F 82% 30.55 in 10.0 mi North 4.6 mph - N/A   Clear
9:56 AM 46.9 °F - 37.0 °F 68% 30.56 in 10.0 mi Calm Calm - N/A   Clear
10:56 AM 52.0 °F - 37.0 °F 57% 30.57 in 10.0 mi NE 8.1 mph - N/A   Clear
11:56 AM 55.9 °F - 35.1 °F 45% 30.56 in 10.0 mi Variable 5.8 mph - N/A   Clear
12:56 PM 59.0 °F - 34.0 °F 39% 30.54 in 10.0 mi Variable 5.8 mph - N/A   Partly Cloudy
1:56 PM 62.1 °F - 37.0 °F 39% 30.51 in 10.0 mi NE 6.9 mph - N/A   Clear
2:56 PM 64.0 °F - 39.9 °F 41% 30.48 in 10.0 mi Variable 4.6 mph - N/A   Clear
3:56 PM 64.9 °F - 42.1 °F 43% 30.46 in 10.0 mi Variable 5.8 mph - N/A   Partly Cloudy
4:56 PM 64.9 °F - 42.1 °F 43% 30.44 in 10.0 mi Variable 4.6 mph - N/A   Scattered Clouds
6:56 PM 64.0 °F - 45.0 °F 50% 30.41 in 10.0 mi SE 5.8 mph - N/A   Clear
7:56 PM 61.0 °F - 45.0 °F 56% 30.41 in 10.0 mi Calm Calm - N/A   Clear
8:56 PM 57.0 °F - 45.0 °F 64% 30.42 in 10.0 mi Calm Calm - N/A   Scattered Clouds
9:56 PM 57.9 °F - 46.0 °F 65% 30.43 in 10.0 mi Calm Calm - N/A   Overcast
10:56 PM 57.9 °F - 46.0 °F 65% 30.43 in 10.0 mi East 3.5 mph - N/A   Overcast
11:56 PM 57.9 °F - 45.0 °F 62% 30.43 in 10.0 mi SE 3.5 mph - N/A   Mostly Cloudy
12:56 AM 57.0 °F - 46.0 °F 67% 30.41 in 10.0 mi Calm Calm - N/A   Overcast